Weather History for Charles City, IA

Change the Weather History Date:

Thursday, September 13, 2012

  Actual Average Record
Temperature  
Mean Temperature 60 °F -  
Max Temperature 69 °F 75 °F 93 °F (1998)
Min Temperature 48 °F 53 °F 34 °F (1953)
Degree Days  
Heating Degree Days 6    
Growing Degree Days 10 (Base 50)    
Moisture  
Dew Point 46 °F    
Average Humidity 71    
Maximum Humidity 88    
Minimum Humidity 23    
Precipitation  
Precipitation 0.27 in - - ()
Sea Level Pressure  
Sea Level Pressure 30.34 in    
Wind  
Wind Speed 5 mph (West)    
Max Wind Speed 10 mph    
Max Gust Speed -    
Visibility 10 miles    
Events Rain    
Averages and records for this station are not official NWS values.
T = Trace of Precipitation, MM = Missing Value Source: NWS Daily Summary

Daily Weather History Graph

Daily Weather History Graph

Search for Another Location

Airport:

Trip Planner

Search our weather history database for the weather conditions in past years. The results will help you decide how hot, cold, wet, or windy it might be!

Date:

Astronomy

Sep. 13, 2012 Rise Set
Actual Time 6:48 AM CDT 7:23 PM CDT
Civil Twilight 6:19 AM CDT 7:51 PM CDT
Nautical Twilight 5:45 AM CDT 8:25 PM CDT
Astronomical Twilight 5:11 AM CDT 9:00 PM CDT
Moon 4:05 AM CDT (9/13) 5:48 PM CDT (9/13)
Length of Visible Light 13h 31m
Length of Day
12h 34m
Waning Crescent, 7% of the Moon is Illuminated
Sep 13
Waning Crescent
Sep 15
New
Sep 22
First Quarter
Sep 29
Full
Oct 8
Last Quarter

Hourly Weather History & Observations

Time (CDT) Temp. Dew Point Humidity Pressure Visibility Wind Dir Wind Speed Gust Speed Precip Events Conditions
12:15 AM 50.0 °F 46.4 °F 87% 30.29 in 10.0 mi NE 6.9 mph - 0.01 in Rain Rain
12:35 AM 50.0 °F 46.4 °F 87% 30.30 in 10.0 mi NE 5.8 mph - 0.01 in Rain Light Rain
12:55 AM 50.0 °F 46.4 °F 87% 30.29 in 10.0 mi ENE 6.9 mph - 0.03 in Rain Light Rain
1:15 AM 50.0 °F 46.4 °F 87% 30.32 in 10.0 mi Calm Calm - N/A   Drizzle
1:35 AM 50.0 °F 46.4 °F 87% 30.30 in 10.0 mi Calm Calm - 0.01 in Rain Light Rain
1:55 AM 50.0 °F 46.4 °F 87% 30.31 in 10.0 mi NNW 3.5 mph - 0.01 in Rain Light Rain
2:15 AM 50.0 °F 46.4 °F 87% 30.32 in 10.0 mi NW 8.1 mph - N/A   Overcast
2:35 AM 51.8 °F 46.4 °F 82% 30.32 in 10.0 mi Calm Calm - N/A   Light Drizzle
2:55 AM 51.8 °F 46.4 °F 82% 30.31 in 10.0 mi Calm Calm - N/A   Overcast
3:15 AM 51.8 °F 48.2 °F 88% 30.31 in 10.0 mi Calm Calm - N/A   Overcast
3:35 AM 51.8 °F 46.4 °F 82% 30.33 in 10.0 mi NW 4.6 mph - 0.02 in Rain Rain
3:55 AM 50.0 °F 46.4 °F 87% 30.34 in 10.0 mi NNW 4.6 mph - 0.07 in Rain Rain
4:15 AM 50.0 °F 46.4 °F 87% 30.33 in 10.0 mi North 5.8 mph - 0.05 in Rain Rain
4:35 AM 50.0 °F 46.4 °F 87% 30.32 in 10.0 mi NE 4.6 mph - 0.06 in Rain Light Rain
4:55 AM 50.0 °F 46.4 °F 87% 30.31 in 10.0 mi ENE 5.8 mph - 0.09 in Rain Rain
5:15 AM 50.0 °F 46.4 °F 87% 30.31 in 10.0 mi East 6.9 mph - 0.02 in Rain Light Rain
5:35 AM 50.0 °F 46.4 °F 87% 30.31 in 10.0 mi East 8.1 mph - 0.05 in Rain Light Rain
5:55 AM 50.0 °F 46.4 °F 87% 30.29 in 10.0 mi East 10.4 mph - 0.06 in Rain Light Rain
6:15 AM 50.0 °F 46.4 °F 87% 30.29 in 10.0 mi ENE 6.9 mph - N/A Rain Light Rain
6:35 AM 51.8 °F 46.4 °F 82% 30.29 in 10.0 mi East 5.8 mph - N/A   Overcast
6:55 AM 51.8 °F 46.4 °F 82% 30.31 in 10.0 mi Calm Calm - N/A   Mostly Cloudy
7:15 AM 51.8 °F 46.4 °F 82% 30.33 in 10.0 mi WNW 3.5 mph - N/A   Scattered Clouds
7:35 AM 51.8 °F 46.4 °F 82% 30.33 in 10.0 mi Calm Calm - N/A   Scattered Clouds
7:55 AM 51.8 °F 46.4 °F 82% 30.34 in 10.0 mi Calm Calm - N/A   Clear
8:15 AM 51.8 °F 46.4 °F 82% 30.34 in 10.0 mi WNW 3.5 mph - N/A   Clear
8:35 AM 51.8 °F 46.4 °F 82% 30.34 in 10.0 mi WNW 3.5 mph - N/A   Clear
8:55 AM 51.8 °F 48.2 °F 88% 30.35 in 10.0 mi WNW 3.5 mph - 0.01 in   Clear
9:15 AM 53.6 °F 48.2 °F 82% 30.36 in 10.0 mi WNW 4.6 mph - N/A   Clear
9:35 AM 53.6 °F 48.2 °F 82% 30.37 in 10.0 mi NW 5.8 mph - N/A   Clear
9:55 AM 53.6 °F 48.2 °F 82% 30.37 in 10.0 mi NW 4.6 mph - N/A   Clear
10:15 AM 55.4 °F 48.2 °F 77% 30.38 in 10.0 mi WNW 3.5 mph - N/A   Clear
10:35 AM 55.4 °F 48.2 °F 77% 30.39 in 10.0 mi West 4.6 mph - N/A   Clear
10:55 AM 57.2 °F 48.2 °F 72% 30.39 in 10.0 mi Calm Calm - N/A   Clear
11:15 AM 57.2 °F 48.2 °F 72% 30.40 in 10.0 mi West 4.6 mph - N/A   Clear
11:35 AM 59.0 °F 50.0 °F 72% 30.39 in 10.0 mi West 6.9 mph - N/A   Clear
11:55 AM 59.0 °F 50.0 °F 72% 30.38 in 10.0 mi West 5.8 mph - N/A   Clear
12:15 PM 59.0 °F 50.0 °F 72% 30.38 in 10.0 mi West 5.8 mph - N/A   Clear
12:35 PM 60.8 °F 50.0 °F 68% 30.38 in 10.0 mi West 5.8 mph - N/A   Clear
12:55 PM 60.8 °F 50.0 °F 68% 30.38 in 10.0 mi West 6.9 mph - N/A   Clear
1:15 PM 60.8 °F 50.0 °F 68% 30.38 in 10.0 mi West 5.8 mph - N/A   Clear
1:35 PM 62.6 °F 50.0 °F 63% 30.37 in 10.0 mi West 5.8 mph - N/A   Clear
1:55 PM 62.6 °F 51.8 °F 68% 30.37 in 10.0 mi West 5.8 mph - N/A   Clear
2:15 PM 64.4 °F 48.2 °F 56% 30.36 in 10.0 mi WNW 5.8 mph - N/A   Clear
2:35 PM 64.4 °F 48.2 °F 56% 30.35 in 10.0 mi NW 3.5 mph - N/A   Clear
2:55 PM 66.2 °F 46.4 °F 49% 30.34 in 10.0 mi West 3.5 mph - N/A   Unknown
3:15 PM 66.2 °F 44.6 °F 46% 30.33 in 10.0 mi Calm Calm - N/A   Clear
3:35 PM 66.2 °F 39.2 °F 37% 30.33 in 10.0 mi Calm Calm - N/A   Clear
3:55 PM 68.0 °F 41.0 °F 37% 30.33 in 10.0 mi Calm Calm - N/A   Clear
4:15 PM 68.0 °F 42.8 °F 40% 30.33 in 10.0 mi West 3.5 mph - N/A   Clear
4:35 PM 69.8 °F 35.6 °F 28% 30.32 in 10.0 mi West 3.5 mph - N/A   Clear
4:55 PM 69.8 °F 30.2 °F 23% 30.32 in 10.0 mi Calm Calm - N/A   Clear
5:15 PM 68.0 °F 33.8 °F 28% 30.33 in 10.0 mi West 3.5 mph - N/A   Clear
5:35 PM 68.0 °F 35.6 °F 30% 30.32 in 10.0 mi NW 3.5 mph - N/A   Clear
5:55 PM 68.0 °F 35.6 °F 30% 30.33 in 10.0 mi WSW 5.8 mph - N/A   Clear
6:15 PM 66.2 °F 42.8 °F 43% 30.33 in 10.0 mi Calm Calm - N/A   Clear
6:35 PM 66.2 °F 39.2 °F 37% 30.32 in 10.0 mi SW 3.5 mph - N/A   Clear
7:15 PM 60.8 °F 44.6 °F 55% 30.33 in 10.0 mi South 5.8 mph - N/A   Clear
7:35 PM 57.2 °F 46.4 °F 67% 30.33 in 10.0 mi South 4.6 mph - N/A   Clear
7:55 PM 57.2 °F 44.6 °F 63% 30.33 in 10.0 mi South 6.9 mph - N/A   Clear
8:15 PM 55.4 °F 46.4 °F 72% 30.33 in 10.0 mi South 5.8 mph - N/A   Clear
8:35 PM 55.4 °F 46.4 °F 72% 30.34 in 10.0 mi SSW 6.9 mph - N/A   Clear
8:55 PM 53.6 °F 46.4 °F 77% 30.34 in 10.0 mi SSW 8.1 mph - N/A   Clear
9:15 PM 53.6 °F 46.4 °F 77% 30.34 in 10.0 mi SSW 8.1 mph - N/A   Clear
9:35 PM 55.4 °F 46.4 °F 72% 30.34 in 10.0 mi SSW 6.9 mph - N/A   Clear
10:15 PM 53.6 °F 46.4 °F 77% 30.35 in 10.0 mi SSW 5.8 mph - N/A   Clear
10:35 PM 51.8 °F 46.4 °F 82% 30.34 in 10.0 mi SSW 6.9 mph - N/A   Clear
10:55 PM 51.8 °F 46.4 °F 82% 30.34 in 10.0 mi SSW 6.9 mph - N/A   Clear
11:15 PM 51.8 °F 46.4 °F 82% 30.35 in 10.0 mi South 5.8 mph - N/A   Clear
11:35 PM 50.0 °F 46.4 °F 87% 30.34 in 10.0 mi South 4.6 mph - N/A   Clear
11:55 PM 48.2 °F 44.6 °F 87% 30.35 in 10.0 mi South 4.6 mph - N/A   Clear